Weather History for Scottsbluff, NE

Change the Weather History Date:

Friday, May 11, 2012

  Actual Average Record
Temperature  
Mean Temperature 45 °F 56 °F  
Max Temperature 52 °F 70 °F 94 °F (1900)
Min Temperature 37 °F 41 °F 24 °F (1946)
Degree Days  
Heating Degree Days 20 10  
Month to date heating degree days 72 128  
Since 1 July heating degree days 5560 6421  
Cooling Degree Days 0 0  
Month to date cooling degree days 6 0  
Year to date cooling degree days 16 2  
Moisture  
Dew Point 25 °F    
Average Humidity 44    
Maximum Humidity 59    
Minimum Humidity 28    
Precipitation  
Precipitation T in 0.07 in 1.47 in (2014)
Month to date precipitation 0.16 0.74  
Year to date precipitation 1.99 4.58  
Snow  
Snow 0.00 in 0.10 in 2.60 in (1983)
Month to date snowfall 0.0 0.4  
Since 1 July snowfall 20.4 42.0  
Snow Depth 0.00 in    
Sea Level Pressure  
Sea Level Pressure 30.24 in    
Wind  
Wind Speed 11 mph (ENE)    
Max Wind Speed 22 mph    
Max Gust Speed 30 mph    
Visibility 10 miles    
Events      
T = Trace of Precipitation, MM = Missing Value Source: NWS Daily Summary

Daily Weather History Graph

Daily Weather History Graph

Search for Another Location

Airport:

Trip Planner

Search our weather history database for the weather conditions in past years. The results will help you decide how hot, cold, wet, or windy it might be!

Date:

Astronomy

May. 11, 2012 Rise Set
Actual Time 5:37 AM MDT 8:04 PM MDT
Civil Twilight 5:06 AM MDT 8:35 PM MDT
Nautical Twilight 4:27 AM MDT 9:15 PM MDT
Astronomical Twilight 3:43 AM MDT 9:59 PM MDT
Moon 12:44 AM MDT (5/11) 11:14 AM MDT (5/11)
Length of Visible Light 15h 29m
Length of Day
14h 26m
Waning Gibbous, 62% of the Moon is Illuminated
May 11
Waning Gibbous
May 12
Last Quarter
May 20
New
May 28
First Quarter
Jun 4
Full

Hourly Weather History & Observations

Time (MDT) Temp. Windchill Dew Point Humidity Pressure Visibility Wind Dir Wind Speed Gust Speed Precip Events Conditions
12:53 AM 50.0 °F - 28.9 °F 44% 29.97 in 10.0 mi North 10.4 mph - N/A   Mostly Cloudy
1:53 AM 46.9 °F - 28.9 °F 50% 29.99 in 10.0 mi NNE 17.3 mph - 0.00 in   Overcast
2:53 AM 46.0 °F 39.9 °F 30.9 °F 56% 30.05 in 10.0 mi NE 13.8 mph 23.0 mph 0.00 in   Overcast
3:53 AM 45.0 °F 38.9 °F 30.9 °F 58% 30.05 in 10.0 mi NE 12.7 mph - 0.00 in   Mostly Cloudy
4:53 AM 44.1 °F 39.5 °F 30.0 °F 58% 30.09 in 10.0 mi NE 8.1 mph - N/A   Partly Cloudy
5:53 AM 45.0 °F 40.1 °F 30.0 °F 56% 30.13 in 10.0 mi NNE 9.2 mph - N/A   Mostly Cloudy
6:53 AM 45.0 °F 40.1 °F 28.0 °F 52% 30.15 in 10.0 mi NNE 9.2 mph - N/A   Overcast
7:53 AM 45.0 °F 40.1 °F 26.1 °F 48% 30.22 in 10.0 mi NE 9.2 mph - N/A   Overcast
8:53 AM 45.0 °F 39.7 °F 25.0 °F 46% 30.25 in 10.0 mi NE 10.4 mph - N/A   Overcast
9:53 AM 46.0 °F 41.4 °F 21.9 °F 39% 30.29 in 10.0 mi NNE 9.2 mph - N/A   Overcast
10:53 AM 48.0 °F - 18.0 °F 30% 30.29 in 10.0 mi NE 8.1 mph - N/A   Overcast
11:53 AM 48.9 °F - 18.0 °F 29% 30.30 in 10.0 mi NE 13.8 mph 20.7 mph N/A   Overcast
12:53 PM 48.9 °F - 24.1 °F 38% 30.30 in 10.0 mi NE 15.0 mph 20.7 mph N/A   Overcast
1:53 PM 50.0 °F - 23.0 °F 35% 30.30 in 10.0 mi East 15.0 mph - N/A   Overcast
2:53 PM 50.0 °F - 21.9 °F 33% 30.30 in 10.0 mi East 12.7 mph - N/A   Overcast
3:53 PM 51.1 °F - 19.9 °F 29% 30.28 in 10.0 mi East 8.1 mph - N/A   Mostly Cloudy
4:53 PM 51.1 °F - 19.0 °F 28% 30.28 in 10.0 mi ESE 12.7 mph 29.9 mph N/A   Mostly Cloudy
5:53 PM 50.0 °F - 23.0 °F 35% 30.28 in 10.0 mi SE 12.7 mph - N/A   Scattered Clouds
6:53 PM 48.0 °F - 25.0 °F 41% 30.30 in 10.0 mi SE 11.5 mph - N/A   Partly Cloudy
7:53 PM 46.0 °F 40.6 °F 27.0 °F 47% 30.32 in 10.0 mi SE 11.5 mph - N/A   Clear
8:53 PM 43.0 °F 37.2 °F 27.0 °F 53% 30.34 in 10.0 mi ESE 10.4 mph - N/A   Clear
9:53 PM 43.0 °F 37.2 °F 28.0 °F 56% 30.35 in 10.0 mi SE 10.4 mph - N/A   Clear
10:53 PM 42.1 °F 36.1 °F 28.0 °F 58% 30.34 in 10.0 mi ESE 10.4 mph - N/A   Partly Cloudy
11:53 PM 39.0 °F 34.8 °F 27.0 °F 62% 30.35 in 10.0 mi East 5.8 mph - N/A   Partly Cloudy